Change the Weather History Date:

Thursday, August 28, 2014

  Actual Average Record
Temperature  
Mean Temperature 73 °F 72 °F  
Max Temperature 82 °F 83 °F 94 °F (1973)
Min Temperature 63 °F 61 °F 33 °F (1996)
Degree Days  
Heating Degree Days 0 0  
Month to date heating degree days 6 0  
Since 1 June heating degree days 30 23  
Since 1 July heating degree days 24 1  
Cooling Degree Days 8 7  
Month to date cooling degree days 194 241  
Year to date cooling degree days 642 832  
Since 1 June cooling degree days 545 755  
Growing Degree Days 22 (Base 50)    
Moisture  
Dew Point 63 °F    
Average Humidity 76    
Maximum Humidity 93    
Minimum Humidity 58    
Precipitation  
Precipitation 0.00 in 0.10 in 2.02 in (1983)
Month to date precipitation 3.69 3.15  
Year to date precipitation 24.98 25.24  
Sea Level Pressure  
Sea Level Pressure 30.07 in    
Wind  
Wind Speed 6 mph (ENE)    
Max Wind Speed 12 mph    
Max Gust Speed 14 mph    
Visibility 10 miles    
Events      
T = Trace of Precipitation, MM = Missing Value Source: NWS Daily Summary

Daily Weather History Graph

Daily Weather History Graph

Search for Another Location

Airport or City:

Trip Planner

Search our weather history database for the weather conditions in past years. The results will help you decide how hot, cold, wet, or windy it might be!

Date:

Astronomy

Aug. 28, 2014 Rise Set
Actual Time 7:11 AM EDT 8:25 PM EDT
Civil Twilight 6:42 AM EDT 8:54 PM EDT
Nautical Twilight 6:09 AM EDT 9:27 PM EDT
Astronomical Twilight 5:33 AM EDT 10:03 PM EDT
Moon 10:03 AM EDT (8/28) 9:48 PM EDT (8/28)
Length of Visible Light 14h 11m
Length of Day
13h 14m
Waxing Crescent, 8% of the Moon is Illuminated
Aug 28
Waxing Crescent
Sep 2
First Quarter
Sep 8
Full
Sep 15
Last Quarter
Sep 24
New

Hourly Weather History & Observations

Time (EDT) Temp. Heat Index Dew Point Humidity Pressure Visibility Wind Dir Wind Speed Gust Speed Precip Events Conditions
1:54 AM 64.9 °F - 60.1 °F 84% 30.09 in 10.0 mi NE 6.9 mph - N/A   Clear
2:54 AM 64.9 °F - 61.0 °F 87% 30.08 in 10.0 mi NNE 4.6 mph - N/A   Clear
3:54 AM 63.0 °F - 60.1 °F 90% 30.09 in 10.0 mi NNE 5.8 mph - N/A   Clear
4:54 AM 63.0 °F - 61.0 °F 93% 30.09 in 10.0 mi NE 4.6 mph - N/A   Clear
5:54 AM 64.0 °F - 61.0 °F 90% 30.09 in 10.0 mi ENE 9.2 mph - N/A   Mostly Cloudy
6:54 AM 64.0 °F - 61.0 °F 90% 30.10 in 10.0 mi ENE 5.8 mph - N/A   Clear
7:54 AM 63.0 °F - 61.0 °F 93% 30.11 in 10.0 mi NE 5.8 mph - N/A   Clear
8:54 AM 64.9 °F - 62.1 °F 90% 30.10 in 10.0 mi NE 6.9 mph - N/A   Overcast
9:54 AM 66.9 °F - 63.0 °F 87% 30.10 in 10.0 mi ENE 6.9 mph - N/A   Mostly Cloudy
10:54 AM 70.0 °F - 64.0 °F 81% 30.10 in 10.0 mi East 6.9 mph - N/A   Overcast
11:54 AM 75.0 °F - 66.0 °F 73% 30.09 in 10.0 mi ESE 8.1 mph - N/A   Scattered Clouds
12:54 PM 75.9 °F - 64.9 °F 69% 30.09 in 10.0 mi East 5.8 mph - N/A   Mostly Cloudy
1:54 PM 78.1 °F - 66.0 °F 66% 30.07 in 10.0 mi Calm Calm - N/A   Partly Cloudy
2:54 PM 79.0 °F - 63.0 °F 58% 30.05 in 10.0 mi NE 3.5 mph - N/A   Clear
3:54 PM 81.0 °F 82.5 °F 64.0 °F 56% 30.04 in 10.0 mi Variable 5.8 mph - N/A   Clear
4:54 PM 81.0 °F 82.7 °F 64.9 °F 58% 30.02 in 10.0 mi East 8.1 mph - N/A   Clear
5:54 PM 80.1 °F 81.9 °F 64.9 °F 60% 30.02 in 10.0 mi ESE 8.1 mph - N/A   Clear
6:54 PM 79.0 °F - 66.0 °F 64% 30.02 in 10.0 mi ESE 6.9 mph - N/A   Clear
7:54 PM 75.0 °F - 66.0 °F 73% 30.02 in 10.0 mi East 9.2 mph - N/A   Clear
8:54 PM 73.0 °F - 64.9 °F 76% 30.03 in 10.0 mi East 6.9 mph - N/A   Clear
9:54 PM 72.0 °F - 64.9 °F 78% 30.04 in 10.0 mi East 9.2 mph - N/A   Clear
10:54 PM 71.1 °F - 64.9 °F 81% 30.04 in 10.0 mi East 8.1 mph - N/A   Clear
11:54 PM 69.1 °F - 64.9 °F 87% 30.04 in 10.0 mi East 5.8 mph - N/A   Clear